AirNav   Air Wisconsin pilot careers
 
 1018 users online  

NC2 Taylorsville Airport
Taylorsville, North Carolina, USA

GOING TO TAYLORSVILLE?


FAA INFORMATION EFFECTIVE 29 MARCH 2018

Location

FAA Identifier: NC2
Lat/Long: 35-55-51.0000N / 081-11-48.0000W
35-55.850000N / 081-11.800000W
35.9308333 / -81.1966667
(estimated)
Elevation: 1090 ft. / 332 m (estimated)
Variation: 05W (1985)
From city: 1 mile NW of TAYLORSVILLE, NC
Time zone: UTC -4 (UTC -5 during Standard Time)
Zip code: 28681

Airport Operations

Airport use: Open to the public
Activation date: 06/1962
Control tower: no
ARTCC: ATLANTA CENTER
FSS: RALEIGH FLIGHT SERVICE STATION
NOTAMs facility: RDU (NOTAM-D service available)
Attendance: UNATNDD
Wind indicator: yes
Segmented circle: no

Airport Communications

CTAF: 122.9
WX ASOS at HKY (15 nm SW): 118.325 (828-322-2996)
WX AWOS-3 at SVH (15 nm SE): 119.225 (704-873-1978)
WX AWOS-3 at UKF (18 nm N): 126.625 (336-696-3788)

Nearby radio navigation aids

VOR radial/distance  VOR name  Freq  Var
BZMr036/4.3BARRETTS MOUNTAIN VOR/DME110.8006W

 
NDB name  Hdg/Dist  Freq  Var  ID
TAWBA037/10.133206WHK .... -.-
LINCOLNTON353/24.243206WIZN .. --.. -.
FIDDLERS067/26.639107WFIQ ..-. .. --.-
ASHEE176/30.841007WJUH .--- ..- ....
ZEPHYR233/32.232608WZEF --.. . ..-.
HEMLOCK114/35.732002WBAR -... .- .-.

Airport Services

Airframe service: MAJOR
Powerplant service: MAJOR

Runway Information

Runway 8/26

Dimensions: 2400 x 60 ft. / 732 x 18 m
Surface: turf, in good condition
RUNWAY 8  RUNWAY 26
Traffic pattern: leftleft
Obstructions: 45 ft. trees, 56 ft. from runway, 113 ft. left of centerline, 1:1 slope to clear54 ft. trees, 37 ft. from runway, 48 ft. left of centerline

Airport Ownership and Management from official FAA records

Ownership: Privately-owned
Owner: TAYLORSVILLE FLYING SERVICE, LLC
496 AIRPORT ROAD
TAYLORSVILLE, NC 28681
Phone 828-514-7731
Manager: WARREN MILLER & PHILIP MALTBA
496 AIRPORT ROAD
TAYLORSVILLE, NC 28681
Phone (828) 455-5566
WARREN MILLER PHONE NUMBER (828) 455-5566

Airport Operational Statistics

Aircraft based on the field: 11
Single engine airplanes: 10
Ultralights: 1
    
Aircraft operations: avg 35/month *
94% local general aviation
6% transient general aviation
* for 12-month period ending 27 August 2017

Additional Remarks

ARPT RESTRICTEDTO DAY VFR ONLY.
RY 08 PREFERRED FOR LANDINGS, RY 26 PREFERRED FOR DEPARTURE.
DEER ON & INVOF ARPT.
ALL PILOTS ARE STRONGLY ENCOURAGED TO FLY A FULL PATTERN AND ANNOUNCE INTENTIONS AND POSITION ON 122.90. STRAIGHT IN APPROACHES NOT RECOMMENDED. MOWERS ON RYS EQUIPPED WITH SAFETY FLAGS AND RADIOS.
RWY 8 HAS 10 FT DITCH ALONG LEFT SIDE

Instrument Procedures

There are no published instrument procedures at NC2.

Some nearby airports with instrument procedures:

KHKY - Hickory Regional Airport (15 nm SW)
KSVH - Statesville Regional Airport (15 nm SE)
KUKF - Wilkes County Airport (18 nm N)
KMRN - Foothills Regional Airport (21 nm W)
14A - Lake Norman Airpark (24 nm SE)
 
Loc | Ops | Rwys | IFR | FBO | Links
Com | Nav | Svcs | Stats | Notes

AirNav Hotels Sweepstakes
 
Area around NC2 (Taylorsville Airport)
 
Road maps at: MapQuest Bing Google
 
Aerial photo
No photo
 
Sectional chart

 
Airport distance calculator
Flying to Taylorsville Airport? Find the distance to fly.

From to NC2

Sunrise and sunset
Times for 25-Apr-2018
 Local
(UTC-4)
 Zulu
(UTC)
Morning civil twilight06:1310:13
Sunrise06:4010:40
Sunset20:0500:05
Evening civil twilight20:3200:32

Current date and time
Zulu (UTC)  26-Apr-2018 00:39:39
Local (UTC-4)  25-Apr-2018 20:39:39
 
METAR
KHKY 
14nm SW 
252353Z 29006KT 10SM OVC060 17/10 A2984 RMK AO2 SLP089 T01720100 10206 20172 51013
KSVH 
16nm SE 
260015Z AUTO 30005KT 10SM SCT065 16/09 A2983 RMK AO2 T01630089
KUKF 
18nm N 
260015Z AUTO 31005KT 10SM SCT060 15/09 A2988 RMK AO2
KMRN 
22nm W 
260015Z AUTO 25004KT 10SM OVC055 17/11 A2990 RMK AO2 T01700108
KIPJ 
27nm S 
260015Z AUTO 00000KT 10SM CLR 18/09 A2983 RMK AO2 T01840087
KTNB 
27nm NW 
118.525 828-268-8921
260015Z AUTO 30009G15KT 4SM DZ BKN014 BKN019 11/10 A2991 RMK AO2 T01050097
TAF
KHKY 
14nm SW 
251728Z 2518/2618 30010KT P6SM BKN050 FM260500 VRB02KT P6SM BKN070 FM261400 06003KT P6SM BKN050
NOTAMs
Click for the latest NOTAMs
NOTAMs are issued by the DoD/FAA and will open in a separate window not controlled by AirNav.

 

 
 

Would you like to see your business listed on this page?

 If your business provides an interesting product or service to pilots, flight crews, aircraft, or users of the Taylorsville Airport, you should consider listing it here.  To start the listing process, click on the button below
 
Add a business
 

Other Pages about Taylorsville Airport

Update a link
 
Copyright © AirNav, LLC. All rights reserved. Privacy Policy  Contact